RH
55 56 57 60 61 59 55 53 53 52 50 47 43 41 41 40 40 41 43 45 45 45 44 43 41 39 38 36 34 32 29 26 25 26 28 30 31 32 32 31 31 30 29 29 29 31 32 34 36 37 39 39 40 41 41 42 43 43 42 42 42 42 43 45 47 49 49 49 48 50 51 50 48 47 50 55 57 56 54 55 57 52 50 51 46
51 52 53 55 55 53 52 52 52 51 50 46 42 41 41 40 41 41 42 43 43 43 41 40 39 37 35 33 32 29 27 27 28 30 32 33 34 33 32 34 36 36 34 31 29 28 30 33 35 38 41 42 42 42 41 42 43 45 46 46 46 47 47 47 48 49 49 46 46 49 51 52 51 50 53 56 57 55 53 52 50 45 45 47 42
51 53 52 53 52 51 50 49 50 48 46 42 39 39 39 40 40 40 41 41 41 39 38 36 34 33 33 33 32 31 30 32 34 36 35 35 34 33 36 41 42 41 41 37 34 32 33 36 37 41 44 44 45 45 45 44 45 46 48 49 51 50 51 50 49 50 50 47 47 50 51 53 53 53 55 56 56 54 53 48 44 41 41 42 41
51 53 53 52 49 48 48 47 46 43 41 39 37 38 38 38 38 38 39 39 38 36 35 33 33 34 35 36 38 38 38 38 38 38 37 36 35 38 45 46 45 44 44 43 43 43 43 41 41 44 44 44 44 44 45 45 46 47 49 52 53 52 54 54 52 52 51 48 47 48 51 54 53 54 57 56 54 51 48 43 39 37 37 39 39
52 53 52 50 47 46 46 45 43 40 38 37 36 36 37 37 37 38 38 38 37 36 35 35 37 38 40 42 45 45 44 42 40 39 37 36 40 46 48 47 46 47 47 49 51 51 50 47 45 45 43 42 41 41 42 43 45 47 48 49 51 53 56 54 53 54 51 49 47 48 51 55 54 55 57 56 52 47 42 39 37 36 36 36 37
50 51 50 48 47 46 45 44 43 41 39 38 37 37 37 37 37 38 39 39 38 38 38 41 42 43 45 47 49 49 47 44 41 40 38 40 47 49 48 48 48 49 50 52 54 54 54 52 49 47 43 41 40 40 41 44 48 49 48 46 48 54 56 55 56 56 53 51 49 48 51 55 55 55 57 54 49 44 39 37 37 35 35 36 36
46 48 48 47 46 45 44 44 45 44 41 40 39 40 40 39 40 40 40 41 40 41 43 46 46 48 50 51 51 50 50 47 45 42 40 45 51 51 50 51 51 51 52 53 54 55 55 54 51 47 42 40 40 40 41 46 52 53 53 51 52 55 57 59 60 57 54 52 50 49 52 54 54 56 57 52 45 40 38 37 37 37 35 36 35
44 46 46 46 45 43 44 44 46 46 42 41 42 44 45 44 42 41 41 40 41 46 49 49 49 51 53 53 53 52 51 49 48 43 42 48 51 52 53 53 53 53 55 56 56 55 54 52 49 45 41 39 39 41 44 50 55 56 56 55 56 58 60 63 62 58 56 53 52 50 51 52 54 57 57 49 41 39 39 40 39 37 35 35 34
42 43 44 44 42 42 44 44 45 45 43 44 46 47 48 45 41 40 41 41 46 51 54 52 52 52 53 54 54 54 54 52 50 45 44 49 51 52 53 53 54 53 55 56 55 54 53 50 46 42 39 38 39 42 45 52 56 57 58 58 60 60 60 62 61 59 57 54 53 51 51 55 59 60 54 45 40 40 40 41 39 38 37 36 36
39 40 41 41 40 40 42 43 44 44 44 46 47 47 45 40 39 42 44 48 53 55 55 55 54 52 53 55 55 56 55 54 51 45 45 50 51 53 53 52 52 52 53 54 54 53 51 48 45 41 41 43 45 47 49 53 57 58 60 62 63 61 59 58 58 57 56 55 53 52 55 60 62 57 48 43 41 40 40 40 40 40 40 39 38
36 36 36 36 37 38 40 41 42 44 44 44 45 43 39 37 42 47 50 54 57 55 53 54 55 53 54 55 57 58 57 56 52 45 47 51 51 53 53 52 52 53 53 54 54 52 49 47 46 43 44 47 49 51 52 55 58 58 59 62 62 60 58 57 57 57 56 56 54 55 59 60 58 51 45 43 43 43 42 42 42 42 41 40 41
35 34 33 34 36 38 40 41 42 42 42 41 41 38 37 40 48 51 51 54 55 53 53 57 57 54 54 55 56 58 59 58 53 47 50 53 52 53 53 53 53 53 53 53 52 49 46 46 46 45 47 51 52 52 52 54 58 59 58 58 58 58 58 59 59 58 58 56 56 57 58 56 52 47 44 43 42 42 42 41 42 40 39 41 42
34 33 34 35 37 39 39 39 38 39 38 39 38 37 40 46 50 50 49 50 51 54 56 58 57 55 55 55 55 57 58 59 53 46 50 53 53 54 52 53 53 53 52 52 51 49 45 44 44 45 48 52 52 52 53 57 58 59 57 56 58 58 59 60 60 59 59 56 54 55 55 53 49 45 42 42 41 40 39 39 39 38 39 42 42
30 30 31 33 34 36 36 36 37 38 37 38 39 40 45 48 49 48 48 49 52 56 56 55 54 54 55 55 54 55 57 56 50 47 50 53 53 53 53 55 54 53 52 52 51 50 47 44 44 45 46 49 50 51 54 58 58 57 55 55 58 59 58 59 59 59 58 56 55 54 53 51 48 44 41 41 40 38 37 37 37 37 39 42 43
29 28 28 28 29 32 35 38 39 39 40 42 44 45 46 47 46 47 49 52 56 56 55 54 53 53 53 53 53 54 55 54 49 48 51 52 52 52 53 55 54 52 51 51 50 49 48 47 46 46 45 46 48 51 54 56 56 55 54 54 56 57 56 57 57 57 57 57 56 54 53 51 48 43 39 39 39 38 37 37 36 37 40 43 45
29 26 23 23 25 30 35 39 41 41 44 47 47 46 46 45 45 47 49 53 55 53 52 52 51 51 52 52 52 53 54 53 49 48 51 51 51 50 50 52 51 51 50 49 48 48 49 48 45 44 44 45 47 51 54 55 54 53 52 53 53 53 53 53 53 54 55 55 55 54 53 51 47 42 38 37 39 39 38 38 38 39 42 44 47
27 24 21 21 25 31 35 39 43 44 46 48 47 46 46 46 46 49 50 53 54 51 50 50 52 53 52 52 52 52 52 52 49 47 49 51 51 50 49 50 50 50 50 49 48 47 46 46 44 42 43 46 49 52 52 52 52 50 50 51 50 50 50 49 50 50 51 51 51 51 52 51 48 42 37 37 39 41 40 40 41 42 44 46 48
25 24 23 23 27 33 37 41 45 46 47 47 47 48 48 48 49 51 52 52 52 51 50 51 52 53 53 54 52 51 50 50 49 47 48 50 51 50 49 49 50 50 50 49 48 46 43 43 43 42 44 47 49 51 52 51 49 46 45 44 45 46 45 45 46 47 48 49 49 49 49 49 48 44 41 40 41 42 43 44 45 47 48 49 49
25 27 26 26 30 34 37 41 44 45 45 45 47 49 49 49 50 51 50 49 49 50 51 51 51 53 53 54 53 52 50 49 48 47 48 50 50 48 47 48 48 48 48 48 47 45 41 40 42 42 46 48 50 53 54 53 48 43 39 35 35 37 38 38 39 40 43 46 48 48 48 48 47 46 45 44 43 44 46 47 49 49 49 49 48
28 29 29 29 32 35 37 39 41 41 42 43 46 48 48 50 51 50 49 49 51 52 51 51 53 53 53 54 55 53 51 51 50 49 49 49 49 47 46 46 46 46 47 47 45 44 40 38 41 45 49 51 53 57 58 56 51 45 39 34 32 30 29 31 32 33 35 39 43 46 47 47 47 47 48 47 45 46 47 48 48 49 50 49 49
32 31 30 30 33 35 36 37 38 39 39 41 45 47 48 50 51 51 51 51 52 53 51 53 56 55 55 55 53 52 51 52 51 50 49 49 47 46 46 45 46 46 46 45 44 42 40 39 40 44 49 53 55 58 60 58 54 47 43 39 36 32 28 27 28 28 29 31 34 37 40 41 42 43 45 45 44 44 45 47 47 49 51 50 51
32 31 29 29 33 35 36 36 35 36 39 42 44 47 49 50 51 50 51 51 49 50 51 53 54 54 54 52 50 50 50 51 50 49 49 48 46 46 46 46 45 46 45 45 45 44 43 43 43 45 49 53 56 57 57 57 54 50 47 42 38 36 32 30 29 29 29 29 29 30 31 33 34 35 36 37 38 39 41 44 46 48 50 50 50
31 30 28 28 33 34 35 34 33 35 39 42 43 46 48 49 50 49 50 50 48 50 51 50 49 47 46 46 48 48 48 48 48 47 47 46 46 47 47 45 44 44 44 45 46 45 45 46 47 48 51 53 55 56 55 54 52 50 47 41 36 36 36 35 35 34 34 34 33 33 33 34 35 36 37 38 40 42 43 44 45 46 46 46 45
31 30 27 28 33 33 32 32 33 36 39 40 41 44 47 47 48 47 49 49 50 51 51 49 47 43 40 40 44 46 46 46 46 46 46 45 46 46 45 43 43 43 44 44 44 44 45 46 47 49 52 55 56 57 55 53 52 51 48 40 34 34 35 36 36 37 38 39 39 39 39 40 41 42 42 43 43 42 42 41 42 42 42 41 40
34 31 28 28 32 34 33 34 36 37 36 37 39 43 45 45 45 47 49 50 52 51 49 47 43 39 36 36 40 43 44 44 44 44 44 42 41 41 42 41 41 41 42 42 41 43 45 46 47 49 51 55 57 57 56 54 54 52 50 44 37 33 34 35 35 35 35 36 37 38 39 40 41 40 40 39 38 37 37 38 39 39 39 39 38
36 32 29 28 32 36 36 37 39 36 33 35 38 42 42 42 44 48 51 51 51 49 46 43 39 37 35 35 36 38 40 41 42 42 41 39 38 38 39 39 40 39 40 41 40 41 43 46 49 49 50 52 52 53 56 55 54 54 53 50 42 37 35 34 33 33 32 32 32 33 34 35 34 34 33 32 32 34 35 36 36 37 37 36 36
37 34 32 31 33 39 39 40 39 34 33 35 37 39 40 43 46 51 53 52 50 48 46 44 43 42 39 39 38 37 39 40 41 40 40 39 39 38 38 39 39 38 38 40 41 42 44 48 52 51 49 50 49 49 51 53 53 54 53 52 48 42 38 36 35 34 33 32 31 31 31 31 30 29 29 30 32 33 34 35 36 37 37 37 37
38 35 35 35 35 41 43 41 39 35 34 36 36 36 41 46 48 53 56 53 49 48 47 47 48 48 46 45 44 44 43 43 42 42 41 40 39 38 39 39 39 38 39 41 42 43 47 50 51 49 48 48 47 47 47 49 51 52 51 50 48 45 41 37 37 37 36 34 33 33 32 31 31 31 31 32 33 33 33 34 35 36 37 37 36
39 36 36 37 38 42 45 43 39 36 35 34 34 35 41 47 48 53 58 55 50 48 47 48 50 51 50 51 51 49 47 47 47 45 44 43 41 40 42 41 40 39 39 42 43 44 47 49 50 49 47 46 46 48 48 48 49 51 50 49 47 46 43 39 38 38 38 37 35 34 35 34 34 34 34 34 34 33 32 32 34 35 36 34 32
38 37 36 37 38 41 45 45 41 38 35 32 32 35 41 45 47 53 58 56 52 48 47 48 50 51 51 53 54 53 50 49 50 48 47 46 45 45 46 44 42 42 41 42 43 45 47 48 49 48 45 44 45 47 47 47 49 51 51 50 48 46 45 43 41 39 37 37 36 35 36 36 36 36 35 34 34 34 33 34 36 36 35 31 28
39 38 37 38 37 39 44 46 42 39 35 30 30 34 43 47 48 54 57 57 54 50 50 50 50 50 50 51 53 53 51 50 50 50 49 47 48 49 48 45 45 45 43 42 42 44 46 47 47 47 44 43 43 43 44 46 48 50 50 50 48 47 47 46 44 41 38 38 37 36 37 37 37 37 35 35 36 36 36 37 38 37 32 28 27
38 38 37 38 37 36 42 47 44 39 35 30 29 34 43 48 49 53 55 56 54 52 53 53 52 51 51 51 53 52 51 50 49 49 49 48 48 50 49 47 46 46 45 43 43 43 44 45 46 45 44 43 42 42 41 43 46 48 49 48 48 49 48 45 44 43 40 38 37 37 37 37 38 37 36 36 37 38 37 38 38 35 29 28 29
37 38 37 39 37 35 39 45 43 38 34 32 30 34 40 45 49 50 50 53 54 54 54 55 55 54 51 50 52 51 51 50 48 48 48 47 46 47 48 47 46 46 46 45 43 42 42 43 45 44 43 42 42 42 40 41 43 46 47 46 46 47 46 44 43 42 41 39 38 39 39 38 38 38 36 35 36 36 36 35 33 30 29 30 33
36 38 38 39 37 34 37 41 40 36 35 33 30 32 36 42 47 47 47 50 51 52 52 53 55 56 53 50 50 50 51 51 49 48 48 46 46 46 47 49 47 44 44 44 43 42 42 42 42 41 41 40 40 41 41 40 43 47 47 47 46 45 44 43 41 41 39 39 37 37 39 40 40 39 37 35 34 34 33 31 29 28 30 32 34
36 36 37 39 37 34 36 38 37 36 35 34 31 32 36 41 44 44 46 49 49 48 50 51 52 52 51 50 50 50 50 51 50 49 48 47 48 47 47 49 48 46 44 42 43 43 43 42 41 39 39 38 39 39 40 38 42 46 46 45 45 45 44 41 39 39 38 37 36 36 37 40 41 40 38 34 32 29 28 27 28 30 32 32 33
37 35 35 39 38 35 36 37 36 35 34 34 34 35 37 42 45 46 48 49 47 46 46 48 48 47 49 50 50 49 48 49 50 49 48 48 48 46 47 50 49 47 46 43 42 43 43 42 41 41 40 39 38 37 38 38 39 42 43 43 44 44 42 39 37 36 36 36 36 35 36 37 38 39 38 34 30 27 26 27 28 29 31 30 29
37 35 35 37 36 37 38 37 36 34 35 35 36 37 37 42 47 48 50 49 47 46 45 46 45 44 47 48 48 49 48 49 50 48 48 48 48 46 48 51 50 48 48 46 42 42 42 42 41 43 43 41 38 37 36 37 39 41 41 43 43 42 40 37 35 34 34 34 34 35 35 35 34 35 35 33 30 28 29 31 30 29 26 25 23
37 35 35 35 34 38 40 38 36 34 36 36 35 37 36 40 46 47 48 49 47 45 45 45 43 42 44 45 45 48 49 50 50 48 47 47 48 49 50 51 49 47 46 46 44 41 42 44 43 45 46 43 39 37 37 37 40 41 41 41 40 40 38 36 35 35 34 34 34 34 34 34 32 30 32 32 30 29 30 31 32 28 24 21 20
38 36 37 36 33 38 41 38 35 35 38 38 34 37 37 37 43 45 46 47 46 44 43 42 40 40 42 43 44 47 49 49 48 49 48 46 48 52 53 51 50 47 44 42 42 41 42 43 45 46 47 44 41 41 41 38 38 39 40 40 40 40 39 38 37 35 33 33 34 33 33 31 30 29 30 31 30 31 29 27 27 24 21 22 24
40 38 38 38 33 36 41 37 34 35 39 38 34 36 36 35 38 42 44 47 46 44 42 39 37 36 37 40 43 45 48 49 49 49 48 46 48 53 54 53 52 50 46 43 41 41 42 43 45 48 48 46 45 46 45 41 38 39 39 39 41 41 41 40 40 36 33 33 36 36 35 33 33 32 31 32 32 32 29 24 21 19 18 21 25
41 39 38 39 35 35 38 37 34 35 39 38 33 34 34 32 35 39 42 45 46 44 41 38 34 34 34 36 40 41 43 48 49 47 47 46 48 51 53 52 51 51 49 46 44 43 43 44 45 47 47 47 47 48 46 43 41 40 40 42 42 42 41 41 41 39 36 36 39 39 38 37 37 36 34 34 34 33 29 24 19 17 18 21 23
41 41 39 38 37 35 36 36 34 34 37 36 31 31 31 29 32 36 40 43 44 44 42 39 35 34 34 34 36 37 38 45 48 46 46 46 48 50 51 50 49 50 49 47 46 45 44 44 45 46 47 47 48 48 46 45 44 42 41 44 45 44 43 41 39 38 38 39 41 41 40 39 38 37 36 35 34 32 28 25 21 19 20 22 23
42 41 40 37 36 36 34 33 35 32 34 36 31 29 29 27 30 33 37 42 44 44 43 41 37 35 35 34 34 35 37 45 49 47 46 48 50 50 49 48 48 50 51 49 48 45 44 43 45 46 47 47 47 48 48 47 46 44 42 44 45 43 44 42 39 39 40 41 41 41 41 39 38 37 36 35 33 30 26 25 24 23 23 24 25
43 42 42 37 35 36 32 30 32 31 31 34 32 29 28 27 28 31 35 41 43 43 42 42 40 37 36 36 35 36 39 44 47 47 47 49 50 48 46 46 47 50 51 50 49 46 45 44 44 45 45 46 46 46 46 45 44 44 43 43 43 42 41 41 39 38 40 41 41 41 40 38 38 36 35 34 32 28 25 26 27 26 26 26 27
43 41 41 38 35 34 33 28 29 30 29 31 31 29 28 27 29 32 35 39 41 42 41 41 41 38 36 37 35 36 39 41 43 44 44 46 47 46 44 45 45 47 49 50 50 49 47 45 46 47 46 46 44 42 42 41 42 44 44 43 42 41 39 37 38 38 39 40 40 39 38 37 37 36 34 33 29 26 27 30 31 29 28 27 27
42 41 41 39 36 34 32 28 27 29 27 28 29 28 26 26 28 30 33 36 38 40 40 41 42 37 35 34 33 34 37 38 41 43 43 43 45 44 43 45 48 49 50 50 49 49 48 47 48 51 49 45 42 41 40 40 41 42 41 43 43 40 37 36 39 40 37 39 39 37 36 35 35 34 33 31 28 28 30 32 32 31 30 29 29
41 41 41 40 38 35 32 28 26 27 27 25 26 26 25 25 25 26 29 34 36 38 40 41 41 37 33 32 32 32 33 35 39 44 45 45 46 44 42 45 49 52 52 50 49 48 47 47 49 49 49 46 42 40 40 39 39 40 41 43 43 38 36 35 38 39 37 38 40 37 35 34 33 33 32 30 29 30 32 32 33 32 32 33 33
40 40 40 39 39 36 32 29 27 26 26 25 24 23 22 23 24 24 27 31 33 36 37 39 40 37 33 31 31 30 31 32 36 41 44 45 47 46 43 44 46 46 47 48 50 47 45 45 46 47 48 47 44 41 41 40 39 40 42 42 40 37 35 35 36 38 37 38 39 37 35 32 31 30 30 30 29 30 31 32 33 33 34 36 36
41 39 39 38 38 36 32 30 29 26 24 23 23 22 21 21 22 23 25 26 29 32 35 36 38 37 34 31 30 30 30 30 32 36 39 42 45 45 43 43 41 40 42 46 48 45 44 44 45 46 45 46 47 43 40 39 38 40 41 40 38 36 35 35 36 37 37 38 38 36 33 31 29 29 29 28 28 30 31 32 33 34 34 36 37
42 40 39 38 38 36 32 31 30 27 24 22 22 22 21 20 20 22 23 24 25 29 32 34 35 36 35 33 29 29 29 29 29 30 33 36 39 41 39 38 37 37 39 43 44 41 41 43 44 45 43 42 46 45 42 40 39 39 38 38 39 38 36 35 34 34 34 35 34 32 31 30 28 28 27 26 28 31 31 32 33 35 35 36 37
44 41 39 38 37 35 32 31 31 30 25 22 21 21 21 20 18 19 22 23 24 26 28 30 32 33 34 34 31 28 28 27 27 27 29 31 34 36 37 35 35 35 36 39 41 38 38 41 43 43 42 42 43 45 44 42 41 38 36 37 39 38 37 36 36 34 33 34 34 32 30 28 27 26 25 26 29 32 32 33 35 36 36 37 37